Weather in Voloshka

Russia / Arkhangel'skaya Oblast'     61°19′53″N   40°05′35″E
temp.,
°C
wind,
m/s
gust,
m/s
humid.,
%
clouds,
%
prec.,
mm/h
press.,
hPa
HPBL,
m
6 march, sat
sat600:00−17wnw229873 0.0 101130
03:00−19wnw239980 0.1 101330
06:00−20w229912 0.0 101223
09:00−16w249647 0.0 1012156
12:00−11wsw249093 0.0 1011362
15:00−8sw358686 0.0 1009615
18:00−10ssw389496 0.1 1007304
21:00−13s399787 0.1 1005241
7 march, sun
sun700:00−13sse4119698 0.0 1001279
03:00−12sse5139298 0.1 998464
06:00−11sse51393100 0.1 993732
09:00−10se51192100 0.8 991735
12:00−9se51092100 0.9 991741
15:00−8ese5990100 1.3 991812
18:00−9e41094100 0.3 992727
21:00−10ene51191100 0.6 994666
8 march, mon
mon800:00−12ne41091100 0.1 996516
03:00−13nne41093100 0.1 998516
06:00−15nne41193100 0.0 1001487
09:00−17nne4993100 0.1 1004409
12:00−15n4890100 0.0 1006523
15:00−14n4789100 0.1 1008673
18:00−18nnw4993100 0.1 1010463
21:00−22n3897100 0.1 1013220
9 march, tue
tue900:00−26nnw249991 0.0 101493
03:00−28nnw259859 0.0 1016100
06:00−31nnw24980 0.0 101886
09:00−28nnw25950 0.0 1020223
12:00−22nnw248760 0.0 1020375
15:00−18nw248753 0.0 1020468
18:00−20wnw129591 0.0 102021
21:00−22nw119995 0.1 102220
10 march, wed
wed1000:00−24nnw11100100 0.1 102320
03:00−26w1110082 0.1 102319
06:00−26wnw129721 0.0 102319
09:00−22w249257 0.0 1024189
12:00−16w258798 0.0 1023297
15:00−13w368599 0.0 1022339
18:00−16w239343 0.0 102274
21:00−19wnw259422 0.0 1022101